User: anonymous   Login
Location: Unspecified
(0.0000°N, 0.0000°E)
Time: 12:35:46
(UTC+01:00)
Language:

Cosmos 1315 Rocket - Orbit

View from above orbital plane
View from above orbital plane
View from above satellite
View from above satellite

Ground track
Ground track

The orbit data is extracted from the following two-line orbital elements,

1 12904U 81103B   15031.17769479  .00002796  00000-0  20129-3 0  6852
2 12904 081.1782 185.9927 0029548 040.2140 320.1260 15.03557995362290
Epoch (UTC): 31 January 2015 04:15:52
Eccentricity: 0.0029548
inclination: 81.1782°
perigee height: 535 km
apogee height: 576 km
right ascension of ascending node: 185.9927°
argument of perigee: 40.2140°
revolutions per day: 15.03557995
mean anomaly at epoch: 320.1260°
orbit number at epoch: 36229

The dashed part of the orbit path shows where the satellite is in the earth's shadow,  

DLR